Regional Weather Roundup
Issued by NWS

Home | Current Version | Previous Version | Graphics & Text | Print | Product List | Glossary Off
Versions: 1 2 3 4 5 6 7 8 9 10 11 12 13 14 15 16 17 18 19 20 21 22 23 24 25 26 27 28 29 30 31 32 33 34 35 36 37 38 39 40 41 42 43 44 45 46 47 48 49 50

000
ASUS43 KDMX 031208
RWRIA

WEATHER ROUNDUP FOR IOWA
NATIONAL WEATHER SERVICE DES MOINES IA
700 AM CDT TUE MAY 03 2016

NOTE: "FAIR" INDICATES FEW OR NO CLOUDS BELOW 12,000 FEET WITH NO
SIGNIFICANT WEATHER AND/OR OBSTRUCTIONS TO VISIBILITY.

* - THESE STATIONS ARE NOT NWS STATIONS...THUS NOT UNDER NWS
QUALITY CONTROL.  THEY ALSO DO NOT REPORT WEATHER SUCH
AS PRECIPITATION OR FOG.

IAZ001>003-012>014-020>022-031>034-043>046-031300-
   NORTHWEST IOWA

CITY           SKY/WX    TMP DP  RH WIND       PRES   REMARKS
CARROLL *      CLEAR     43  39  87 W3        30.04S
CHEROKEE *     CLEAR     36  36 100 CALM      30.04R FOG
DENISON *      CLEAR     39  37  93 CALM      30.03R
LE MARS *      CLOUDY    39  37  93 CALM      30.05R
ORANGE CITY *  CLEAR     43  37  81 CALM      30.03S
SHELDON *      CLEAR     37  37 100 CALM      30.01S
SIOUX CITY     CLOUDY    43  39  86 E3        30.05R
6HR MIN TEMP:  40; 6HR MAX TEMP:  47;

SPENCER        CLEAR     39  36  89 CALM      30.03R
6HR MIN TEMP:  37; 6HR MAX TEMP:  44;

STORM LAKE *   CLEAR     45  37  76 W7        30.04R
$$

IAZ055>058-069>071-079>083-090>094-031300-
   SOUTHWEST IOWA

CITY           SKY/WX    TMP DP  RH WIND       PRES   REMARKS
ATLANTIC *     CLEAR     37  37 100 CALM      30.06R
AUDUBON *      CLEAR     37  34  87 CALM      30.06R
CLARINDA *       N/A    N/A N/A N/A MISG        N/A
COUNCIL BLFS * CLEAR     46  43  87 SW7       30.05R
CRESTON *      CLEAR     43  41  93 W5        30.06R
HARLAN  *      CLEAR     37  37 100 CALM      30.09R FOG
LAMONI         PTCLDY    44  41  89 W6        30.05R
6HR MIN TEMP:  43; 6HR MAX TEMP:  47;

SHENANDOAH *   CLEAR     41  41 100 CALM      30.07R
$$

IAZ047>049-059>061-072>074-084-031300-
   CENTRAL IOWA

CITY           SKY/WX    TMP DP  RH WIND       PRES   REMARKS
AMES           CLEAR     41  39  93 CALM      30.03S
6HR MIN TEMP:  39; 6HR MAX TEMP:  43;

ANKENY *       CLEAR     39  39 100 CALM      30.04S
BOONE *        CLEAR     45  41  87 W6        30.03R
CHARITON *     CLEAR     43  43 100 W5        30.05R
DES MOINES     PTCLDY    45  41  86 CALM      30.04S
6HR MIN TEMP:  44; 6HR MAX TEMP:  50;

GRINNELL*      CLEAR     43  41  93 W6        30.04S
KNOXVILLE *    CLEAR     41  39  93 W6        30.04R
MARSHALLTOWN   CLEAR     41  40  96 W3        30.03R
6HR MIN TEMP:  39; 6HR MAX TEMP:  46;

NEWTON *       CLEAR     43  43 100 W6        30.04R FOG
$$

IAZ004>006-015-016-023>025-035-036-031300-
   NORTH CENTRAL IOWA

CITY           SKY/WX    TMP DP  RH WIND       PRES   REMARKS
ALGONA *       CLEAR     45  41  87 SW8       30.02S
CLARION *      CLEAR     39  39 100 S5        30.03R
ESTHERVILLE    CLEAR     42  39  89 W8        30.01S
6HR MIN TEMP:  41; 6HR MAX TEMP:  46;

FORT DODGE *   MOCLDY    39  36  87 CALM      30.04R
MASON CITY     CLEAR     46  41  82 W8        30.02S
6HR MIN TEMP:  43; 6HR MAX TEMP:  50;

FOREST CITY *  CLEAR     36  36 100 CALM      30.01S FOG
WEBSTER CITY * CLEAR     43  41  93 W5        30.01S
IOWA FALLS *     N/A     45  41  87 W7        30.03S
$$

IAZ007>011-017>019-026>030-037>042-050>054-066-031300-
   NORTHEAST IOWA

CITY           SKY/WX    TMP DP  RH WIND       PRES   REMARKS
CEDAR RAPIDS   CLEAR     41  40  96 NW6       30.02R
CHARLES CITY * CLEAR     45  43  93 W7        30.01S
CLINTON *      SUNNY     43  41  93 W6        30.02R
DECORAH *      SUNNY     46  41  81 CALM      29.98S
DUBUQUE        SUNNY     45  40  82 VRB3      30.00R
6HR MIN TEMP:  42; 6HR MAX TEMP:  46;

MONTICELLO *   SUNNY     45  41  87 NW3       30.01S
OELWEIN *      CLEAR     43  43 100 W5        30.02R
WATERLOO       CLEAR     40  37  89 CALM      30.01S
6HR MIN TEMP:  37; 6HR MAX TEMP:  44;

$$

IAZ064-065-067-068-078-031300-
   EAST CENTRAL IOWA

CITY           SKY/WX    TMP DP  RH WIND       PRES   REMARKS
DAVENPORT      SUNNY     42  40  92 W5        30.02R
6HR MIN TEMP:  40; 6HR MAX TEMP:  46;

IOWA CITY      CLEAR     45  41  86 W7        30.04R
6HR MIN TEMP:  39; 6HR MAX TEMP:  46;

MT. PLEASANT * PTCLDY    48  46  91 W6        30.04R
MUSCATINE *    SUNNY     46  41  81 CALM      30.03S
QUAD CITIES    SUNNY     41  38  89 CALM      30.01S
6HR MIN TEMP:  39; 6HR MAX TEMP:  45;

$$

IAZ062-063-075>077-085>089-095>099-031300-
   SOUTHEAST IOWA

CITY           SKY/WX    TMP DP  RH WIND       PRES   REMARKS
BURLINGTON     SUNNY     46  43  89 NW6       30.03R
6HR MIN TEMP:  46; 6HR MAX TEMP:  51;

FAIRFIELD *    CLEAR     45  41  87 W5        30.04R
FORT MADISON * CLEAR     46  45  93 NW3       30.04R
KEOKUK *       CLOUDY    50  46  87 NW3       30.03R
OSKALOOSA *      N/A     41  40  97 W6        30.05R
OTTUMWA        CLEAR     40  39  97 CALM      30.04R
6HR MIN TEMP:  37; 6HR MAX TEMP:  43;

WASHINGTON *   CLEAR     43  43 100 W8        30.04S
$$

ABBREVIATIONS USED IN REMARKS
   TC - TEMPERATURES IN CELSIUS
  WCI - WIND CHILL INDEX
   HX - HEAT INDEX
  VSB - VISIBILITY
$$





USA.gov is the U.S. government's official web portal to all federal, state and local government web resources and services.